This is the latest recevied weather packets stored in our database for station/object KA1BMF-13. If no packets are shown the sender has not sent any weather packets the latest 10 day(s).
| Time | Temp. | Humidity | Pressure | Rain* | Wind** | Luminosity | Snow |
|---|---|---|---|---|---|---|---|
| 1787789117 | 20° C | 85% | 1017.3 hPa | 0 mm | - | 0 W/m² | - |
| 1787788517 | 20.56° C | 82% | 1017.2 hPa | 0 mm | - | 0 W/m² | - |
| 1787787920 | 21.11° C | 81% | 1017.2 hPa | 0 mm | - | 1 W/m² | - |
| 1787787320 | 21.11° C | 81% | 1017.2 hPa | 0 mm | - | 2 W/m² | - |
| 1787786717 | 21.67° C | 80% | 1017.2 hPa | 0 mm | - | 7 W/m² | - |
| 1787786117 | 21.67° C | 78% | 1017.1 hPa | 0 mm | - | 13 W/m² | - |
| 1787785517 | 21.67° C | 77% | 1017.1 hPa | 0 mm | - | 24 W/m² | - |
| 1787784918 | 22.22° C | 78% | 1017 hPa | 0 mm | - | 32 W/m² | - |
| 1787784318 | 22.22° C | 77% | 1017 hPa | 0 mm | - | 32 W/m² | - |
| 1787783718 | 22.78° C | 76% | 1017.1 hPa | 0 mm | - | 30 W/m² | - |
| 1787783118 | 22.78° C | 74% | 1017.1 hPa | 0 mm | - | 28 W/m² | - |
| 1787782519 | 23.33° C | 75% | 1017.1 hPa | 0 mm | - | 36 W/m² | - |
| 1787781919 | 23.33° C | 74% | 1017.1 hPa | 0 mm | - | 41 W/m² | - |
| 1787781316 | 23.33° C | 73% | 1017 hPa | 0 mm | - | 43 W/m² | - |
| 1787780719 | 23.89° C | 73% | 1017 hPa | 0 mm | - | 47 W/m² | - |
| 1787780119 | 23.89° C | 74% | 1017.1 hPa | 0 mm | - | 49 W/m² | - |
| 1787779519 | 24.44° C | 70% | 1017 hPa | 0 mm | - | 51 W/m² | - |
| 1787778916 | 24.44° C | 70% | 1017 hPa | 0 mm | - | 53 W/m² | - |
| 1787778316 | 24.44° C | 70% | 1017 hPa | 0 mm | - | 54 W/m² | - |
| 1787777717 | 24.44° C | 69% | 1017 hPa | 0 mm | - | 52 W/m² | - |
| 1787777120 | 25° C | 71% | 1016.9 hPa | 0 mm | - | 52 W/m² | - |
| 1787776520 | 25° C | 68% | 1017 hPa | 0 mm | - | 55 W/m² | - |
| 1787775917 | 25° C | 70% | 1017 hPa | 0 mm | - | 114 W/m² | - |
| 1787775317 | 25° C | 70% | 1017.1 hPa | 0 mm | - | 506 W/m² | - |
| 1787774717 | 24.44° C | 72% | 1017.2 hPa | 0 mm | - | 280 W/m² | - |
* Rain latest hour (hover to see other rain measurements)
** Current wind speed in m/s (hover to see current wind gust speed)